Location: Arthurs Seat
(13.1500°N, 59.6000°W)
Time: 16:03:43
(UTC+00:00)

Unknown - Pass Details

Date: 25 August 2019
Orbit: 506 x 509 km, 53.0° (Epoch: 21 September)

Event Time Altitude Azimuth Distance (km) Brightness Sun altitude
Rises 23:44:20 0° 327° (NNW) 2,597 7.8 -22.2°
Reaches altitude 10° 23:46:31 10° 328° (NNW) 1,713 6.8 -22.7°
Enters shadow 23:49:44 58° 348° (NNW) 591 3.8 -23.4°
